HOTSPR-3 Weather Reports


time (UTC)temp
C
wind
direction
speed
KPH
gust
KPH
rain 1hr
cm
rain 24hr
cm
rain mn
cm
humidity
%
barometer
mb
20260510060414 21 355 3.2 6.4 0.00 0.00 0.00 97 1011.6
20260510051913 21 182 4.8 6.4 0.00 0.00 0.00 93 1011.2
20260510050912 21 180 3.2 4.8 0.00 0.00 0.00 92 1010.9
20260510045908 21 180 4.8 4.8 0.00 0.00 0.00 92 1010.8
20260510045408 21 180 3.2 6.4 0.00 0.00 0.00 91 1010.8
20260510044907 21 180 4.8 8.0 0.00 0.00 0.00 91 1010.7
20260510044408 21 193 3.2 4.8 0.00 0.00 0.00 90 1010.6
20260510043907 21 189 4.8 6.4 0.00 0.00 0.00 90 1010.8
20260510041907 21 180 4.8 6.4 0.00 0.00 0.00 89 1010.6
20260510041407 21 180 3.2 6.4 0.00 0.00 0.00 88 1010.6
20260510040906 22 185 4.8 6.4 0.00 0.00 0.00 88 1010.6
20260510040406 22 180 3.2 6.4 0.00 0.00 0.00 88 1010.7
20260510035906 22 187 3.2 6.4 0.00 0.00 0.00 87 1010.5
20260510035406 22 184 3.2 4.8 0.00 0.00 0.00 87 1010.3
20260510034906 22 180 4.8 8.0 0.00 0.00 0.00 87 1010.5
20260510033905 22 183 4.8 4.8 0.00 0.00 0.00 87 1010.5
20260510033404 22 184 4.8 4.8 0.00 0.00 0.00 86 1010.5
20260510032905 22 326 3.2 11.3 0.00 0.00 0.00 86 1010.5
20260510032405 22 187 3.2 4.8 0.00 0.00 0.00 86 1010.4
20260510031905 22 327 4.8 8.0 0.00 0.00 0.00 85 1010.3
20260510031404 22 180 4.8 11.3 0.00 0.00 0.00 85 1010.4
20260510030904 22 187 4.8 11.3 0.00 0.00 0.00 85 1010.3
20260510030404 22 180 4.8 6.4 0.00 0.00 0.00 85 1010.2
20260510025904 22 182 4.8 9.7 0.00 0.00 0.00 84 1010.1
20260510024903 22 3 4.8 6.4 0.00 0.00 0.00 83 1009.8
20260510024403 22 182 3.2 6.4 0.00 0.00 0.00 83 1009.8
20260510023903 22 185 4.8 6.4 0.00 0.00 0.00 82 1009.7
20260510023403 22 171 3.2 4.8 0.00 0.00 0.00 82 1009.8
20260510021902 22 337 3.2 3.2 0.00 0.00 0.00 81 1009.7
20260510020402 23 337 3.2 4.8 0.00 0.00 0.00 80 1009.5
20260510013857 23 337 3.2 4.8 0.00 0.00 0.00 78 1009.2
20260510013357 23 190 3.2 3.2 0.00 0.00 0.00 78 1009.2
20260510012857 23 337 3.2 3.2 0.00 0.00 0.00 77 1009.3
20260510012356 23 185 1.6 6.4 0.00 0.00 0.00 77 1009.3
20260510005855 23 324 1.6 3.2 0.00 0.00 0.00 75 1008.9
20260510005355 23 320 1.6 3.2 0.00 0.00 0.00 74 1008.8
20260510004855 24 317 0.0 3.2 0.00 0.00 0.00 73 1008.8
20260510004355 24 337 1.6 3.2 0.00 0.00 0.00 73 1008.6
20260510003855 24 297 1.6 6.4 0.00 0.00 0.00 72 1008.6
20260510003355 24 337 1.6 1.6 0.00 0.00 0.00 72 1008.6
20260510002854 24 337 1.6 3.2 0.00 0.00 0.00 71 1008.6
20260510002354 24 40 3.2 3.2 0.00 0.00 0.00 71 1008.5
20260510001854 25 324 0.0 4.8 0.00 0.00 0.00 70 1008.5
20260510000356 25 276 1.6 3.2 0.00 0.00 0.00 69 1008.5
20260509235853 25 337 0.0 3.2 0.00 0.00 0.00 69 1008.5
20260509235353 25 294 1.6 8.0 0.00 0.00 0.00 69 1008.5
20260509234853 25 310 1.6 3.2 0.00 0.00 0.00 69 1008.3
20260509234353 25 276 1.6 6.4 0.00 0.00 0.00 69 1008.4
20260509233853 26 151 3.2 3.2 0.00 0.00 0.00 69 1008.3
20260509233352 26 155 3.2 4.8 0.00 0.00 0.00 69 1008.2
20260509232852 26 258 0.0 3.2 0.00 0.00 0.00 69 1008.2
20260509232352 26 337 0.0 3.2 0.00 0.00 0.00 69 1008.1
20260509231352 26 337 0.0 4.8 0.00 0.00 0.00 69 1008.1
20260509230851 26 182 1.6 4.8 0.00 0.00 0.00 69 1008.1
20260509230351 26 83 3.2 4.8 0.00 0.00 0.00 69 1008.1
20260509225851 26 328 0.0 1.6 0.00 0.00 0.00 69 1008.2
20260509225351 26 7 1.6 4.8 0.00 0.00 0.00 70 1008.1
20260509224351 26 274 1.6 3.2 0.00 0.00 0.00 70 1008.1
20260509223350 26 337 1.6 3.2 0.00 0.00 0.00 70 1007.9
20260509222350 26 337 0.0 1.6 0.00 0.00 0.00 70 1008.0
20260509221350 26 337 1.6 3.2 0.00 0.00 0.00 70 1007.8
20260509220349 26 175 1.6 4.8 0.00 0.00 0.00 71 1007.9
20260509215349 26 337 0.0 3.2 0.00 0.00 0.00 71 1007.9
20260509214348 25 287 0.0 3.2 0.00 0.00 0.00 71 1008.0
20260509213348 25 337 1.6 4.8 0.00 0.00 0.00 69 1008.1
20260509212348 25 270 0.0 4.8 0.00 0.00 0.00 69 1008.2
20260509211347 26 54 4.8 6.4 0.00 0.00 0.00 68 1008.3
20260509205347 27 337 0.0 0.0 0.00 0.00 0.00 67 1008.3
20260509204846 27 270 0.0 3.2 0.00 0.00 0.00 67 1008.4
20260509204346 27 45 1.6 3.2 0.00 0.00 0.00 66 1008.4
20260509203346 28 153 1.6 3.2 0.00 0.00 0.00 66 1008.6
20260509202846 28 303 0.0 3.2 0.00 0.00 0.00 66 1008.5
20260509201845 28 212 1.6 4.8 0.00 0.00 0.00 67 1008.7
20260509201345 28 285 0.0 4.8 0.00 0.00 0.00 67 1008.7
20260509200845 27 337 0.0 3.2 0.00 0.00 0.00 68 1008.9
20260509200345 27 337 1.6 6.4 0.00 0.00 0.00 67 1008.8
20260509195845 27 337 3.2 4.8 0.00 0.00 0.00 67 1008.9
20260509195344 27 337 3.2 4.8 0.00 0.00 0.00 65 1008.9
20260509194844 28 176 4.8 4.8 0.00 0.00 0.00 65 1009.1
20260509194344 28 270 0.0 4.8 0.00 0.00 0.00 64 1009.1
20260509193844 28 183 1.6 4.8 0.00 0.00 0.00 64 1009.1
20260509193344 28 310 0.0 3.2 0.00 0.00 0.00 64 1009.1
20260509192843 28 337 1.6 3.2 0.00 0.00 0.00 64 1009.0
20260509192343 28 307 1.6 3.2 0.00 0.00 0.00 64 1009.2
20260509191843 28 73 1.6 4.8 0.00 0.00 0.00 66 1009.2
20260509191343 28 337 1.6 4.8 0.00 0.00 0.00 67 1009.2
20260509190843 27 198 3.2 4.8 0.00 0.00 0.00 69 1009.1
20260509190343 27 135 3.2 4.8 0.00 0.00 0.00 69 1009.2
20260509185842 26 337 4.8 4.8 0.00 0.00 0.00 67 1009.2
20260509185342 27 337 0.0 1.6 0.00 0.00 0.00 66 1009.0
20260509184842 27 0 3.2 4.8 0.00 0.00 0.00 66 1009.2
20260509184342 27 315 1.6 3.2 0.00 0.00 0.00 66 1009.1
20260509183341 27 337 1.6 3.2 0.00 0.00 0.00 67 1009.3
20260509182841 27 270 0.0 4.8 0.00 0.00 0.00 68 1009.4
20260509182341 27 270 0.0 1.6 0.00 0.00 0.00 69 1009.2
20260509181841 27 337 1.6 4.8 0.00 0.00 0.00 68 1009.2
20260509181341 27 270 0.0 3.2 0.00 0.00 0.00 67 1009.3
20260509180841 27 270 0.0 4.8 0.00 0.00 0.00 69 1009.2
20260509180340 27 276 3.2 4.8 0.00 0.00 0.00 70 1009.3
20260509175340 26 270 0.0 3.2 0.00 0.00 0.00 71 1009.4
20260509174840 26 310 1.6 4.8 0.00 0.00 0.00 72 1009.4
20260509174339 26 18 4.8 4.8 0.00 0.00 0.00 72 1009.5
20260509173839 26 321 0.0 3.2 0.00 0.00 0.00 72 1009.6
20260509173339 26 283 0.0 3.2 0.00 0.00 0.00 73 1009.6
20260509172839 26 32 1.6 4.8 0.00 0.00 0.00 73 1009.6
20260509172339 25 337 1.6 3.2 0.00 0.00 0.00 73 1009.8
20260509171839 25 189 1.6 6.4 0.00 0.00 0.00 73 1009.8
20260509171339 25 290 3.2 6.4 0.00 0.00 0.00 74 1009.5
20260509170838 25 22 1.6 1.6 0.00 0.00 0.00 73 1009.5
20260509170338 25 315 1.6 3.2 0.00 0.00 0.00 73 1009.6
20260509165838 25 37 3.2 3.2 0.00 0.00 0.00 74 1009.8
20260509164834 25 281 1.6 3.2 0.00 0.00 0.00 75 1009.8
20260509164333 25 279 0.0 1.6 0.00 0.00 0.00 75 1009.6
20260509162333 25 315 0.0 4.8 0.00 0.00 0.00 75 1009.3
20260509161833 25 315 1.6 8.0 0.00 0.00 0.00 75 1009.3
20260509161332 25 342 3.2 3.2 0.00 0.00 0.00 75 1009.2
20260509160832 25 0 3.2 6.4 0.00 0.00 0.00 76 1009.2
20260509155831 25 330 3.2 4.8 0.00 0.00 0.00 77 1009.3
20260509155332 24 315 1.6 4.8 0.00 0.00 0.00 77 1009.4
20260509153330 24 270 1.6 3.2 0.00 0.00 0.00 77 1009.2
20260509152330 23 315 1.6 4.8 0.00 0.00 0.00 76 1009.3
20260509151330 23 315 1.6 4.8 0.00 0.00 0.00 77 1009.3
20260509145829 23 315 1.6 3.2 0.00 0.00 0.00 78 1009.4
20260509143829 23 330 3.2 3.2 0.00 0.00 0.00 79 1009.5
20260509140328 22 270 0.0 3.2 0.00 0.00 0.00 82 1009.6
20260509134827 22 317 0.0 1.6 0.00 0.00 0.00 82 1009.6
20260509132326 22 270 1.6 6.4 0.00 0.00 0.00 82 1009.5
20260509124325 19 337 1.6 3.2 0.00 0.00 0.00 87 1009.0
20260509122323 18 270 3.2 3.2 0.00 0.00 0.00 86 1008.9
20260509121824 18 270 0.0 3.2 0.00 0.00 0.00 86 1008.8
20260509121323 18 270 3.2 4.8 0.00 0.00 0.00 86 1008.7
20260509120323 18 276 1.6 4.8 0.00 0.00 0.00 86 1008.7
20260509115822 18 270 0.0 1.6 0.00 0.00 0.00 86 1008.6
20260509115322 18 310 4.8 4.8 0.00 0.00 0.00 86 1008.4
20260509114822 18 317 3.2 4.8 0.00 0.00 0.00 87 1008.3
20260509114322 18 317 4.8 4.8 0.00 0.00 0.00 86 1008.4
20260509113822 18 303 3.2 3.2 0.00 0.00 0.00 86 1008.3
20260509113322 18 290 3.2 6.4 0.00 0.00 0.00 86 1008.4
20260509112822 18 303 3.2 4.8 0.00 0.00 0.00 87 1008.3
20260509111822 18 270 1.6 6.4 0.00 0.00 0.00 86 1008.1
20260509105821 18 283 4.8 4.8 0.00 0.00 0.00 87 1007.9
20260509103820 18 324 6.4 6.4 0.00 0.00 0.00 86 1007.5
20260509103320 18 326 3.2 9.7 0.00 0.00 0.00 86 1007.3
20260509102820 18 317 3.2 6.4 0.00 0.00 0.00 86 1007.3
20260509102320 18 312 3.2 6.4 0.00 0.00 0.00 86 1007.1
20260509101319 18 310 1.6 6.4 0.00 0.00 0.00 85 1007.1
20260509100819 18 320 4.8 8.0 0.00 0.00 0.00 85 1007.1
20260509100319 18 292 4.8 6.4 0.00 0.00 0.00 85 1007.1
20260509095318 18 301 4.8 4.8 0.00 0.00 0.00 85 1007.2
20260509094818 18 270 3.2 9.7 0.00 0.00 0.00 85 1007.3
20260509093314 18 312 6.4 14.5 0.00 0.00 0.00 85 1007.3
20260509092313 18 312 3.2 16.1 0.00 0.00 0.00 85 1007.4
20260509091813 18 330 4.8 9.7 0.00 0.00 0.00 85 1007.4
20260509091313 18 290 9.7 11.3 0.00 0.00 0.00 85 1007.4
20260509090313 18 301 3.2 12.9 0.00 0.00 0.00 85 1007.3
20260509085812 18 317 8.0 19.3 0.00 0.00 0.00 85 1007.4
20260509085312 18 283 4.8 12.9 0.00 0.00 0.00 85 1007.2
20260509084812 18 324 4.8 17.7 0.00 0.00 0.00 85 1007.2
20260509084311 18 292 3.2 12.9 0.00 0.00 0.00 85 1007.3
20260509083812 18 303 4.8 17.7 0.00 0.00 0.00 85 1007.3
20260509083312 18 337 9.7 20.9 0.00 0.00 0.00 85 1007.2
20260509082811 18 322 12.9 17.7 0.00 0.00 0.00 85 1007.3
20260509081811 18 327 6.4 17.7 0.00 0.00 0.00 85 1007.3
20260509081311 18 337 9.7 17.7 0.00 0.00 0.00 84 1007.3
20260509080811 18 312 12.9 17.7 0.00 0.00 0.00 84 1007.2
20260509080310 18 337 9.7 14.5 0.00 0.00 0.00 84 1007.4
20260509075810 18 337 12.9 14.5 0.00 0.00 0.00 83 1007.4
20260509075310 18 337 6.4 9.7 0.00 0.00 0.00 83 1007.6
20260509074810 18 327 9.7 17.7 0.00 0.00 0.00 83 1007.7
20260509074310 18 217 8.0 12.9 0.00 0.00 0.00 82 1007.8
20260509073810 18 189 9.7 12.9 0.00 0.00 0.00 83 1007.8
20260509073309 18 329 8.0 14.5 0.00 0.00 0.00 82 1007.8
20260509072809 18 337 8.0 11.3 0.00 0.00 0.00 82 1007.8
20260509072309 18 337 6.4 9.7 0.00 0.00 0.00 81 1007.9
20260509071809 18 330 8.0 14.5 0.00 0.00 0.00 82 1008.0
20260509071309 18 329 9.7 16.1 0.00 0.00 0.00 81 1008.1
20260509070808 18 337 9.7 11.3 0.00 0.00 0.00 81 1008.0
20260509070308 18 337 6.4 8.0 0.00 0.00 0.00 80 1007.9
20260509065808 18 202 3.2 9.7 0.00 0.00 0.00 80 1008.1
20260509065308 18 337 4.8 8.0 0.00 0.00 0.00 80 1008.0
20260509064808 18 210 8.0 9.7 0.00 0.00 0.00 80 1008.1
20260509064308 18 185 4.8 8.0 0.00 0.00 0.00 80 1008.1
20260509063807 18 186 4.8 4.8 0.00 0.00 0.00 79 1008.1
20260509063307 18 191 4.8 6.4 0.00 0.00 0.00 79 1008.1
20260509062807 18 189 6.4 6.4 0.00 0.00 0.00 78 1008.1
20260509062307 18 192 4.8 6.4 0.00 0.00 0.00 78 1008.2
20260509061807 18 180 4.8 6.4 0.00 0.00 0.00 78 1008.3
20260509061306 18 187 4.8 4.8 0.00 0.00 0.00 77 1008.3